Moffett NAS, CA

10:01 AM PST on November 20, 2017 (GMT -0800)
Moffett Federal Air Field

Weather History for KNUQ - November, 2012

Change the Weather History Date:

Sunday, November 25, 2012

  Actual Average Record
Temperature  
Mean Temperature 53 °F 54 °F  
Max Temperature 59 °F 62 °F 74 °F (1959)
Min Temperature 47 °F 45 °F 30 °F (1947)
Degree Days  
Heating Degree Days 12    
Month to date heating degree days 185  
Since 1 July heating degree days 296  
Cooling Degree Days 0    
Month to date cooling degree days 6  
Year to date cooling degree days 321  
Growing Degree Days 2 (Base 50)    
Moisture  
Dew Point 50 °F    
Average Humidity 90    
Maximum Humidity 100    
Minimum Humidity 80    
Precipitation  
Precipitation 0.00 in 0.05 in 1.49 in (1960)
Month to date precipitation 1.08 1.35  
Year to date precipitation 7.28 11.83  
Since 1 July precipitation 1.77  
Sea Level Pressure  
Sea Level Pressure 30.02 in    
Wind  
Wind Speed 0 mph (North)    
Max Wind Speed 9 mph    
Max Gust Speed 16 mph    
Visibility 5 miles    
Events      
T = Trace of Precipitation, MM = Missing Value Source: NWS Daily Summary

Daily Weather History Graph

Daily Weather History Graph

Search for Another Location

Airport or City:

Trip Planner

Search our weather history database for the weather conditions in past years. The results will help you decide how hot, cold, wet, or windy it might be!

Date:

Astronomy

Nov. 25, 2012 Rise Set
Actual Time 6:58 AM PST 4:51 PM PST
Civil Twilight 6:30 AM PST 5:20 PM PST
Nautical Twilight 5:58 AM PST 5:52 PM PST
Astronomical Twilight 5:26 AM PST 6:23 PM PST
Moon 3:10 PM PST (11/25) 4:19 AM PST (11/25)
Length of Visible Light 10h 50m
Length of Day
9h 53m
Waxing Gibbous, 93% of the Moon is Illuminated
Nov 25
Waxing Gibbous
Nov 28
Full
Dec 6
Last Quarter
Dec 13
New
Dec 19
First Quarter

Hourly Weather History & Observations

Time (PST) Temp. Dew Point Humidity Pressure Visibility Wind Dir Wind Speed Gust Speed Precip Events Conditions
12:56 AM 50.0 °F 46.0 °F 86% 30.05 in 10.0 mi Calm Calm - 0.01 in   Clear
1:21 AM 48.2 °F 44.6 °F 87% 30.04 in 10.0 mi Calm Calm - N/A   Scattered Clouds
1:30 AM 50.0 °F 46.4 °F 87% 30.04 in 10.0 mi Calm Calm - N/A   Mostly Cloudy
1:56 AM 51.1 °F 46.9 °F 86% 30.05 in 10.0 mi Calm Calm - N/A   Overcast
2:56 AM 51.1 °F 48.0 °F 89% 30.05 in 10.0 mi Calm Calm - N/A   Overcast
3:56 AM 52.0 °F 48.9 °F 89% 30.04 in 10.0 mi Calm Calm - N/A   Overcast
4:07 AM 51.8 °F 48.2 °F 88% 30.03 in 10.0 mi WSW 3.5 mph - N/A   Overcast
4:56 AM 53.1 °F 51.1 °F 93% 30.04 in 3.0 mi Calm Calm - N/A   Overcast
5:21 AM 53.6 °F 51.8 °F 94% 30.03 in 2.0 mi Calm Calm - N/A   Overcast
5:39 AM 51.8 °F 51.8 °F 100% 30.03 in 1.2 mi Calm Calm - N/A   Overcast
5:56 AM 53.1 °F 52.0 °F 96% 30.04 in 1.2 mi Calm Calm - N/A   Overcast
6:22 AM 51.8 °F 51.8 °F 100% 30.03 in 0.8 mi Calm Calm - N/A   Mist
6:56 AM 52.0 °F 51.1 °F 97% 30.04 in 0.8 mi Calm Calm - N/A   Mist
7:07 AM 51.8 °F 51.8 °F 100% 30.04 in 1.0 mi Calm Calm - N/A   Mist
7:26 AM 51.8 °F 51.8 °F 100% 30.04 in 0.8 mi Calm Calm - N/A   Overcast
7:38 AM 53.6 °F 51.8 °F 94% 30.03 in 1.0 mi Calm Calm - N/A   Overcast
7:54 AM 53.6 °F 51.8 °F 94% 30.03 in 1.5 mi Calm Calm - N/A   Overcast
7:56 AM 53.1 °F 52.0 °F 96% 30.04 in 1.2 mi Calm Calm - N/A   Overcast
8:56 AM 52.0 °F 51.1 °F 97% 30.04 in 1.2 mi Calm Calm - N/A   Overcast
9:05 AM 51.8 °F 51.8 °F 100% 30.04 in 1.5 mi North - - N/A   Overcast
9:15 AM 53.6 °F 51.8 °F 94% 30.04 in 1.2 mi Calm Calm - N/A   Overcast
9:28 AM 51.8 °F 51.8 °F 100% 30.04 in 1.8 mi Calm Calm - N/A   Overcast
9:43 AM 51.8 °F 51.8 °F 100% 30.04 in 1.0 mi Calm Calm - N/A   Overcast
9:56 AM 53.1 °F 52.0 °F 96% 30.05 in 1.2 mi NNE 3.5 mph - N/A   Overcast
10:07 AM 53.6 °F 51.8 °F 94% 30.04 in 1.8 mi NNW 4.6 mph - N/A   Overcast
10:26 AM 53.6 °F 51.8 °F 94% 30.04 in 2.0 mi Calm Calm - N/A   Overcast
10:40 AM 51.8 °F 51.8 °F 100% 30.04 in 4.0 mi Calm Calm - N/A   Overcast
10:56 AM 53.1 °F 52.0 °F 96% 30.04 in 3.0 mi Calm Calm - N/A   Overcast
11:56 AM 54.0 °F 52.0 °F 93% 30.02 in 4.0 mi Calm Calm - N/A   Overcast
12:52 PM 55.4 °F 51.8 °F 88% 29.99 in 6.0 mi North 3.5 mph - N/A   Overcast
12:56 PM 55.9 °F 52.0 °F 87% 30.00 in 7.0 mi Calm Calm - N/A   Overcast
1:32 PM 57.2 °F 51.8 °F 82% 29.98 in 9.0 mi Calm Calm - N/A   Overcast
1:45 PM 57.2 °F 51.8 °F 82% 29.97 in 9.0 mi North 3.5 mph - N/A   Mostly Cloudy
1:56 PM 57.9 °F 52.0 °F 81% 29.98 in 9.0 mi Calm Calm - N/A   Scattered Clouds
2:56 PM 57.9 °F 51.1 °F 78% 29.97 in 10.0 mi Calm Calm - N/A   Clear
3:56 PM 57.9 °F 52.0 °F 81% 29.96 in 9.0 mi ENE 3.5 mph - N/A   Clear
4:56 PM 55.9 °F 51.1 °F 84% 29.96 in 9.0 mi Calm Calm - N/A   Clear
5:56 PM 55.0 °F 51.1 °F 86% 29.96 in 9.0 mi Calm Calm - N/A   Clear
6:56 PM 52.0 °F 48.9 °F 89% 29.96 in 7.0 mi Calm Calm - N/A   Clear
7:56 PM 51.1 °F 48.9 °F 92% 29.98 in 6.0 mi Calm Calm - N/A   Clear
8:56 PM 50.0 °F 46.9 °F 89% 29.99 in 7.0 mi Calm Calm - N/A   Clear
9:56 PM 50.0 °F 46.9 °F 89% 29.99 in 10.0 mi Calm Calm - N/A   Clear
10:56 PM 48.0 °F 46.0 °F 93% 29.99 in 10.0 mi Calm Calm - N/A   Clear
11:56 PM 46.9 °F 45.0 °F 93% 30.00 in 10.0 mi Calm Calm - N/A   Clear